Middlebury State AP, Middlebu, VT

11:41 PM EDT on September 22, 2019 (GMT -0400)
Middlebury State AP, Middlebu

Weather History for K6B0 - July, 2019

Change the Weather History Date:

Friday, July 26, 2019

  Actual Average (KRUT) Record (KRUT)
Temperature  
Mean Temperature 69 °F -  
Max Temperature 84 °F 81 °F 94 °F (1958)
Min Temperature 54 °F 58 °F 44 °F (1976)
Cooling Degree Days 4    
Growing Degree Days 19 (Base 50)    
Moisture  
Dew Point 60 °F    
Average Humidity 73    
Maximum Humidity 98    
Minimum Humidity 37    
Precipitation  
Precipitation 0.00 in - - ()
Sea Level Pressure  
Sea Level Pressure 30.24 in    
Wind  
Wind Speed 1 mph ()    
Max Wind Speed 6 mph    
Max Gust Speed -    
Visibility 10.0 miles    
Events      
Averages and records for this station are not official NWS values.
T = Trace of Precipitation, MM = Missing Value Source: Averaged Metar Reports

Daily Weather History Graph

Daily Weather History Graph

Search for Another Location

Airport or City:

Astronomy

Jul. 26, 2019 Rise Set
Actual Time 5:33 AM EDT 8:23 PM EDT
Civil Twilight 5:00 AM EDT 8:56 PM EDT
Nautical Twilight 4:17 AM EDT 9:39 PM EDT
Astronomical Twilight 3:27 AM EDT 10:28 PM EDT
Moon 12:50 AM EDT (7/26) 3:02 PM EDT (7/26)
Length of Visible Light 15h 56m
Length of Day
14h 49m
Waning Crescent, 34% of the Moon is Illuminated
Jul 26
Waning Crescent
Jul 31
New
Aug 7
First Quarter
Aug 15
Full
Aug 23
Last Quarter

Hourly Weather History & Observations

Time (EDT) Temp. Heat Index Dew Point Humidity Pressure Visibility Wind Dir Wind Speed Gust Speed Precip Events Conditions
12:15 AM 61.0 °F - 58.1 °F 90% 30.19 in 10.0 mi Calm Calm - N/A   Scattered Clouds
12:16 AM 60.8 °F - 58.1 °F 91% 30.19 in 10.0 mi Calm Calm - N/A   Scattered Clouds
12:38 AM 60.1 °F - 57.9 °F 93% 30.19 in 10.0 mi Calm Calm - N/A   Scattered Clouds
12:56 AM 59.7 °F - 57.6 °F 93% 30.19 in 10.0 mi Calm Calm - N/A   Clear
1:16 AM 59.0 °F - 57.4 °F 94% 30.19 in 10.0 mi Calm Calm - N/A   Clear
1:35 AM 58.6 °F - 57.4 °F 96% 30.20 in 10.0 mi Calm Calm - N/A   Clear
1:36 AM 58.8 °F - 57.4 °F 95% 30.20 in 10.0 mi Calm Calm - N/A   Clear
1:55 AM 58.5 °F - 56.8 °F 94% 30.20 in 10.0 mi Calm Calm - N/A   Clear
1:59 AM 58.5 °F - 57.2 °F 96% 30.20 in 10.0 mi Calm Calm - N/A   Clear
2:17 AM 58.5 °F - 57.2 °F 96% 30.21 in 10.0 mi Calm Calm - N/A   Clear
2:35 AM 58.3 °F - 57.0 °F 96% 30.21 in 10.0 mi Calm Calm - N/A   Clear
2:55 AM 57.4 °F - 56.3 °F 96% 30.20 in 10.0 mi Calm Calm - N/A   Clear
3:15 AM 57.2 °F - 55.9 °F 96% 30.21 in 10.0 mi Calm Calm - N/A   Clear
3:38 AM 56.3 °F - 55.4 °F 97% 30.21 in 10.0 mi Calm Calm - N/A   Clear
3:56 AM 57.0 °F - 56.1 °F 97% 30.21 in 10.0 mi Calm Calm - N/A   Clear
4:16 AM 56.7 °F - 55.8 °F 97% 30.22 in 10.0 mi Calm Calm - N/A   Clear
4:35 AM 56.3 °F - 55.4 °F 97% 30.22 in 10.0 mi Calm Calm - N/A   Clear
4:36 AM 56.1 °F - 55.4 °F 97% 30.22 in 10.0 mi Calm Calm - N/A   Clear
4:58 AM 55.4 °F - 54.7 °F 97% 30.23 in 10.0 mi Calm Calm - N/A   Clear
5:16 AM 55.9 °F - 55.4 °F 98% 30.24 in 10.0 mi Calm Calm - N/A   Clear
5:36 AM 55.4 °F - 54.7 °F 97% 30.24 in 10.0 mi Calm Calm - N/A   Clear
5:55 AM 54.9 °F - 54.3 °F 98% 30.25 in 10.0 mi Calm Calm - N/A   Clear
5:56 AM 54.7 °F - 54.1 °F 98% 30.25 in 10.0 mi Calm Calm - N/A   Clear
6:15 AM 55.2 °F - 54.7 °F 98% 30.25 in 10.0 mi Calm Calm - N/A   Clear
6:19 AM 55.4 °F - 54.9 °F 98% 30.25 in 10.0 mi Calm Calm - N/A   Clear
6:38 AM 55.2 °F - 54.7 °F 98% 30.25 in 10.0 mi Calm Calm - N/A   Clear
6:56 AM 57.4 °F - 56.8 °F 98% 30.26 in 10.0 mi Calm Calm - N/A   Clear
7:15 AM 59.0 °F - 57.9 °F 96% 30.26 in 10.0 mi Calm Calm - N/A   Clear
7:16 AM 59.2 °F - 58.1 °F 96% 30.26 in 10.0 mi Calm Calm - N/A   Clear
7:35 AM 61.7 °F - 59.0 °F 91% 30.27 in 10.0 mi Calm Calm - N/A   Clear
7:36 AM 61.9 °F - 59.0 °F 90% 30.27 in 10.0 mi Calm Calm - N/A   Clear
7:58 AM 63.7 °F - 60.3 °F 89% 30.27 in 10.0 mi Calm Calm - N/A   Clear
8:16 AM 65.7 °F - 61.7 °F 87% 30.27 in 10.0 mi Calm Calm - N/A   Clear
8:36 AM 68.7 °F - 61.0 °F 76% 30.27 in 10.0 mi Calm Calm - N/A   Clear
8:55 AM 69.6 °F - 62.8 °F 79% 30.27 in 10.0 mi Calm Calm - N/A   Clear
8:56 AM 69.8 °F - 62.6 °F 78% 30.27 in 10.0 mi Calm Calm - N/A   Clear
9:15 AM 70.7 °F - 61.2 °F 72% 30.28 in 10.0 mi South 3.5 mph - N/A   Clear
9:19 AM 71.1 °F - 61.9 °F 73% 30.28 in 10.0 mi SSW 4.6 mph - N/A   Clear
9:37 AM 72.5 °F - 62.1 °F 70% 30.28 in 10.0 mi Calm Calm - N/A   Clear
9:55 AM 72.7 °F - 61.2 °F 67% 30.28 in 10.0 mi SW 3.5 mph - N/A   Clear
10:15 AM 73.6 °F - 62.1 °F 67% 30.28 in 10.0 mi SSE 4.6 mph - N/A   Clear
10:35 AM 74.7 °F - 62.2 °F 65% 30.27 in 10.0 mi WSW 4.6 mph - N/A   Clear
10:59 AM 76.5 °F - 63.9 °F 65% 30.27 in 10.0 mi WSW 5.8 mph - N/A   Clear
11:16 AM 76.6 °F - 62.8 °F 62% 30.27 in 10.0 mi SW 4.6 mph - N/A   Clear
11:36 AM 77.9 °F - 62.2 °F 58% 30.27 in 10.0 mi SSW 4.6 mph - N/A   Clear
11:55 AM 77.9 °F - 61.5 °F 57% 30.27 in 10.0 mi South 4.6 mph - N/A   Clear
11:56 AM 77.9 °F - 61.7 °F 57% 30.27 in 10.0 mi South 4.6 mph - N/A   Clear
12:15 PM 78.8 °F - 61.9 °F 56% 30.27 in 10.0 mi SSW 5.8 mph - N/A   Clear
12:16 PM 78.8 °F - 62.2 °F 57% 30.27 in 10.0 mi SSW 5.8 mph - N/A   Clear
12:38 PM 79.9 °F - 63.3 °F 57% 30.26 in 10.0 mi SSE 4.6 mph - N/A   Clear
12:57 PM 79.9 °F - 62.4 °F 55% 30.26 in 10.0 mi Calm Calm - N/A   Clear
1:16 PM 81.0 °F 81.7 °F 60.6 °F 50% 30.26 in 10.0 mi SW 3.5 mph - N/A   Clear
1:35 PM 81.5 °F 82.0 °F 60.3 °F 48% 30.25 in 10.0 mi Calm Calm - N/A   Clear
1:36 PM 81.5 °F 82.1 °F 60.4 °F 49% 30.25 in 10.0 mi Calm Calm - N/A   Clear
1:55 PM 81.9 °F 82.1 °F 59.0 °F 46% 30.25 in 10.0 mi SW 4.6 mph - N/A   Clear
2:00 PM 81.9 °F 81.9 °F 58.3 °F 45% 30.25 in 10.0 mi WSW 4.6 mph - N/A   Clear
2:17 PM 82.4 °F 82.5 °F 59.0 °F 45% 30.25 in 10.0 mi SSW 4.6 mph - N/A   Clear
2:35 PM 82.6 °F 82.3 °F 57.7 °F 43% 30.25 in 10.0 mi Calm Calm - N/A   Clear
2:59 PM 82.6 °F 82.3 °F 58.1 °F 43% 30.25 in 10.0 mi SW 3.5 mph - N/A   Clear
3:16 PM 82.9 °F 82.3 °F 56.1 °F 40% 30.24 in 10.0 mi NW 5.8 mph - N/A   Clear
3:35 PM 84.2 °F 83.0 °F 55.0 °F 37% 30.24 in 10.0 mi Calm Calm - N/A   Clear
3:55 PM 83.8 °F 82.7 °F 55.0 °F 37% 30.24 in 10.0 mi Calm Calm - N/A   Clear
3:56 PM 83.8 °F 82.7 °F 55.0 °F 37% 30.24 in 10.0 mi Calm Calm - N/A   Clear
4:18 PM 83.5 °F 82.6 °F 55.9 °F 39% 30.23 in 10.0 mi ESE 3.5 mph - N/A   Clear
4:36 PM 83.3 °F 82.5 °F 55.6 °F 39% 30.23 in 10.0 mi SW 4.6 mph - N/A   Clear
4:56 PM 83.3 °F 82.5 °F 55.8 °F 39% 30.23 in 10.0 mi Calm Calm - N/A   Clear
5:15 PM 83.8 °F 82.8 °F 55.6 °F 38% 30.23 in 10.0 mi Calm Calm - N/A   Clear
5:16 PM 83.7 °F 82.7 °F 55.6 °F 38% 30.23 in 10.0 mi South 3.5 mph - N/A   Clear
5:35 PM 81.5 °F 83.6 °F 66.0 °F 59% 30.22 in 10.0 mi Calm Calm - N/A   Clear
5:39 PM 81.3 °F 83.5 °F 66.4 °F 60% 30.22 in 10.0 mi Calm Calm - N/A   Clear
5:58 PM 81.1 °F 83.4 °F 66.6 °F 61% 30.22 in 10.0 mi Calm Calm - N/A   Clear
6:16 PM 79.0 °F - 67.6 °F 68% 30.23 in 10.0 mi Calm Calm - N/A   Clear
6:35 PM 77.9 °F - 68.9 °F 74% 30.23 in 10.0 mi Calm Calm - N/A   Clear
6:36 PM 77.9 °F - 68.9 °F 74% 30.23 in 10.0 mi Calm Calm - N/A   Clear
6:55 PM 76.3 °F - 67.8 °F 75% 30.23 in 10.0 mi Calm Calm - N/A   Clear
6:56 PM 76.3 °F - 67.8 °F 75% 30.23 in 10.0 mi Calm Calm - N/A   Clear
7:18 PM 75.2 °F - 68.9 °F 81% 30.23 in 10.0 mi Calm Calm - N/A   Clear
7:36 PM 74.1 °F - 68.4 °F 82% 30.23 in 10.0 mi Calm Calm - N/A   Clear
7:56 PM 71.6 °F - 64.8 °F 79% 30.24 in 10.0 mi Calm Calm - N/A   Clear
8:15 PM 70.5 °F - 63.1 °F 77% 30.24 in 10.0 mi Calm Calm - N/A   Clear
8:16 PM 70.3 °F - 63.0 °F 77% 30.24 in 10.0 mi Calm Calm - N/A   Clear
8:35 PM 69.3 °F - 61.0 °F 75% 30.24 in 10.0 mi Calm Calm - N/A   Clear
8:39 PM 69.1 °F - 61.5 °F 77% 30.24 in 10.0 mi Calm Calm - N/A   Clear
8:57 PM 68.9 °F - 61.2 °F 76% 30.25 in 10.0 mi Calm Calm - N/A   Clear
9:15 PM 69.8 °F - 61.2 °F 74% 30.25 in 10.0 mi Calm Calm - N/A   Clear
9:35 PM 70.9 °F - 59.7 °F 68% 30.25 in 10.0 mi SE 3.5 mph - N/A   Clear
9:55 PM 70.7 °F - 58.6 °F 66% 30.25 in 10.0 mi ESE 3.5 mph - N/A   Clear
10:19 PM 70.7 °F - 58.5 °F 65% 30.25 in 10.0 mi SE 3.5 mph - N/A   Clear
10:37 PM 71.1 °F - 56.3 °F 60% 30.25 in 10.0 mi SE 3.5 mph - N/A   Clear
10:56 PM 70.0 °F - 58.5 °F 67% 30.25 in 10.0 mi SE 3.5 mph - N/A   Clear
11:15 PM 67.1 °F - 58.8 °F 75% 30.25 in 10.0 mi ESE 3.5 mph - N/A   Clear
11:16 PM 67.3 °F - 58.3 °F 73% 30.25 in 10.0 mi ESE 3.5 mph - N/A   Clear
11:35 PM 67.6 °F - 57.9 °F 71% 30.25 in 10.0 mi Calm Calm - N/A   Clear
11:39 PM 67.6 °F - 58.1 °F 71% 30.25 in 10.0 mi Calm Calm - N/A   Clear
11:57 PM 65.8 °F - 58.5 °F 77% 30.25 in 10.0 mi Calm Calm - N/A   Clear